| time (UTC) | temp F | wind direction | speed knots | gust knots | rain 1hr in | rain 24hr in | rain mn in | humidity % | barometer mb |
| 20260901042001 | 75 | 0 | 0.0 | 0.0 | 0.00 | 0.00 | 0.00 | 93 | 1018.7 |
| 20260901041022 | 76 | 0 | 0.0 | 0.0 | 0.00 | 0.00 | 0.00 | 93 | 1018.8 |
| 20260901040001 | 76 | 0 | 0.0 | 0.0 | 0.00 | 0.00 | 0.00 | 93 | 1018.8 |
| 20260901035001 | 76 | 0 | 0.0 | 0.0 | 0.00 | 0.00 | 0.00 | 93 | 1018.8 |
| 20260901034001 | 76 | 0 | 0.0 | 0.0 | 0.00 | 0.00 | 0.00 | 93 | 1018.9 |
| 20260901033022 | 76 | 0 | 0.0 | 0.0 | 0.00 | 0.00 | 0.00 | 93 | 1018.8 |
| 20260901032022 | 76 | 0 | 0.0 | 0.0 | 0.00 | 0.00 | 0.00 | 93 | 1018.8 |
| 20260901031043 | 76 | 0 | 0.0 | 0.0 | 0.00 | 0.00 | 0.00 | 93 | 1018.9 |
| 20260901030104 | 76 | 0 | 0.0 | 0.0 | 0.00 | 0.00 | 0.00 | 93 | 1018.9 |
| 20260901025001 | 76 | 0 | 0.0 | 0.0 | 0.00 | 0.00 | 0.00 | 92 | 1018.9 |
| 20260901024022 | 77 | 0 | 0.0 | 0.0 | 0.00 | 0.00 | 0.00 | 92 | 1018.8 |
| 20260901023001 | 77 | 0 | 0.0 | 0.0 | 0.00 | 0.00 | 0.00 | 92 | 1018.9 |
| 20260901022001 | 77 | 29 | 0.0 | 0.9 | 0.00 | 0.00 | 0.00 | 91 | 1018.9 |
| 20260901021001 | 77 | 0 | 0.0 | 0.0 | 0.00 | 0.00 | 0.00 | 91 | 1018.9 |
| 20260901020022 | 78 | 0 | 0.0 | 0.0 | 0.00 | 0.00 | 0.00 | 91 | 1018.9 |
| 20260901015043 | 78 | 0 | 0.0 | 0.0 | 0.00 | 0.00 | 0.00 | 90 | 1018.8 |
| 20260901014043 | 78 | 0 | 0.0 | 0.0 | 0.00 | 0.00 | 0.00 | 89 | 1018.7 |
| 20260901013001 | 78 | 0 | 0.0 | 0.0 | 0.00 | 0.00 | 0.00 | 89 | 1018.7 |
| 20260901012022 | 79 | 0 | 0.0 | 0.0 | 0.00 | 0.00 | 0.00 | 89 | 1018.6 |
| 20260901011001 | 79 | 0 | 0.0 | 0.0 | 0.00 | 0.00 | 0.00 | 89 | 1018.5 |
| 20260901010001 | 79 | 0 | 0.0 | 0.0 | 0.00 | 0.00 | 0.00 | 88 | 1018.5 |
| 20260901005001 | 80 | 0 | 0.0 | 0.0 | 0.00 | 0.00 | 0.00 | 88 | 1018.3 |
| 20260901004022 | 80 | 0 | 0.0 | 0.0 | 0.00 | 0.00 | 0.00 | 87 | 1018.1 |
| 20260901003022 | 80 | 0 | 0.0 | 0.0 | 0.00 | 0.00 | 0.00 | 87 | 1018.1 |
| 20260901002043 | 80 | 0 | 0.0 | 0.0 | 0.00 | 0.00 | 0.00 | 86 | 1018.1 |
| 20260901001001 | 81 | 0 | 0.0 | 0.0 | 0.00 | 0.00 | 0.00 | 85 | 1018.1 |
| 20260901000001 | 81 | 0 | 0.0 | 0.0 | 0.00 | 0.00 | 0.00 | 84 | 1018.1 |
| 20260831235023 | 82 | 0 | 0.0 | 0.0 | 0.00 | 0.00 | 0.00 | 83 | 1018.1 |
| 20260831234002 | 82 | 0 | 0.0 | 0.0 | 0.00 | 0.00 | 0.00 | 83 | 1018.2 |
| 20260831233023 | 83 | 0 | 0.0 | 0.0 | 0.00 | 0.01 | 0.00 | 82 | 1018.1 |
| 20260831232002 | 83 | 0 | 0.0 | 0.0 | 0.00 | 0.01 | 0.00 | 81 | 1018.2 |
| 20260831231043 | 83 | 29 | 0.0 | 0.9 | 0.00 | 0.01 | 0.00 | 81 | 1018.1 |
| 20260831230023 | 83 | 29 | 0.0 | 0.9 | 0.00 | 0.01 | 0.00 | 81 | 1018.2 |
| 20260831225105 | 83 | 28 | 0.0 | 1.7 | 0.00 | 0.01 | 0.00 | 81 | 1018.3 |
| 20260831224001 | 84 | 28 | 0.0 | 1.7 | 0.00 | 0.01 | 0.00 | 80 | 1018.5 |
| 20260831223022 | 84 | 28 | 0.0 | 1.7 | 0.00 | 0.01 | 0.00 | 78 | 1018.5 |
| 20260831222002 | 84 | 0 | 0.0 | 0.0 | 0.00 | 0.01 | 0.00 | 75 | 1018.6 |
| 20260831221022 | 84 | 0 | 0.0 | 0.0 | 0.00 | 0.02 | 0.00 | 75 | 1018.8 |
| 20260831220023 | 84 | 0 | 0.0 | 0.0 | 0.00 | 0.02 | 0.00 | 76 | 1018.8 |
| 20260831215002 | 84 | 0 | 0.0 | 0.0 | 0.00 | 0.05 | 0.00 | 75 | 1018.8 |
| 20260831214002 | 84 | 0 | 0.0 | 0.0 | 0.00 | 0.23 | 0.00 | 76 | 1018.7 |
| 20260831213002 | 84 | 27 | 0.0 | 2.6 | 0.00 | 0.26 | 0.00 | 74 | 1018.7 |
| 20260831212044 | 85 | 28 | 0.9 | 2.6 | 0.00 | 0.26 | 0.00 | 74 | 1018.7 |
| 20260831211002 | 85 | 28 | 0.9 | 2.6 | 0.00 | 0.26 | 0.00 | 74 | 1018.7 |
| 20260831210002 | 85 | 28 | 0.0 | 2.6 | 0.00 | 0.26 | 0.00 | 74 | 1018.7 |
| 20260831205023 | 86 | 28 | 0.0 | 1.7 | 0.00 | 0.26 | 0.00 | 73 | 1018.7 |
| 20260831204002 | 86 | 28 | 0.0 | 1.7 | 0.00 | 0.26 | 0.00 | 73 | 1018.8 |
| 20260831203002 | 86 | 28 | 0.0 | 0.9 | 0.00 | 0.26 | 0.00 | 73 | 1018.8 |
| 20260831202002 | 86 | 28 | 0.0 | 1.7 | 0.00 | 0.26 | 0.00 | 71 | 1018.7 |
| 20260831201002 | 86 | 28 | 0.0 | 1.7 | 0.00 | 0.26 | 0.00 | 71 | 1018.8 |
| 20260831200002 | 86 | 28 | 0.9 | 2.6 | 0.00 | 0.26 | 0.00 | 70 | 1018.7 |
| 20260831195023 | 86 | 12 | 0.9 | 2.6 | 0.00 | 0.26 | 0.00 | 69 | 1018.8 |
| 20260831194023 | 86 | 349 | 0.9 | 2.6 | 0.00 | 0.26 | 0.00 | 73 | 1018.7 |
| 20260831193023 | 86 | 346 | 0.0 | 2.6 | 0.00 | 0.26 | 0.00 | 71 | 1018.8 |
| 20260831192044 | 86 | 320 | 0.0 | 2.6 | 0.00 | 0.26 | 0.00 | 71 | 1019.0 |
| 20260831191002 | 87 | 311 | 0.0 | 1.7 | 0.00 | 0.26 | 0.00 | 70 | 1019.2 |
| 20260831190002 | 87 | 311 | 0.0 | 1.7 | 0.00 | 0.26 | 0.00 | 71 | 1019.2 |
| 20260831185023 | 88 | 359 | 0.0 | 2.6 | 0.00 | 0.26 | 0.00 | 69 | 1019.3 |
| 20260831184002 | 88 | 23 | 0.0 | 1.7 | 0.00 | 0.26 | 0.00 | 71 | 1019.3 |
| 20260831183023 | 88 | 171 | 0.0 | 3.5 | 0.00 | 0.26 | 0.00 | 70 | 1019.3 |
| 20260831182044 | 87 | 235 | 0.0 | 3.5 | 0.00 | 0.26 | 0.00 | 72 | 1019.4 |
| 20260831181002 | 87 | 259 | 0.0 | 1.7 | 0.00 | 0.26 | 0.00 | 70 | 1019.3 |
| 20260831180002 | 87 | 259 | 0.0 | 2.6 | 0.00 | 0.26 | 0.00 | 70 | 1019.4 |
| 20260831175002 | 87 | 258 | 0.0 | 1.7 | 0.00 | 0.26 | 0.00 | 71 | 1019.4 |
| 20260831174002 | 88 | 295 | 0.9 | 2.6 | 0.00 | 0.26 | 0.00 | 70 | 1019.6 |
| 20260831173002 | 88 | 102 | 0.9 | 2.6 | 0.00 | 0.26 | 0.00 | 69 | 1019.8 |
| 20260831172002 | 88 | 140 | 0.0 | 1.7 | 0.00 | 0.26 | 0.00 | 71 | 1019.7 |
| 20260831171105 | 88 | 140 | 0.9 | 2.6 | 0.00 | 0.26 | 0.00 | 73 | 1019.6 |
| 20260831170023 | 88 | 149 | 0.9 | 2.6 | 0.00 | 0.26 | 0.00 | 71 | 1019.7 |
| 20260831165044 | 87 | 109 | 0.9 | 3.5 | 0.00 | 0.26 | 0.00 | 75 | 1020.1 |
| 20260831164002 | 86 | 116 | 0.9 | 2.6 | 0.00 | 0.26 | 0.00 | 79 | 1020.2 |
| 20260831163105 | 85 | 338 | 0.0 | 1.7 | 0.00 | 0.26 | 0.00 | 76 | 1020.3 |
| 20260831162002 | 85 | 347 | 0.9 | 2.6 | 0.00 | 0.26 | 0.00 | 75 | 1020.4 |
| 20260831161002 | 85 | 360 | 0.0 | 2.6 | 0.00 | 0.26 | 0.00 | 76 | 1020.4 |
| 20260831160023 | 85 | 320 | 0.9 | 2.6 | 0.00 | 0.26 | 0.00 | 76 | 1020.5 |
| 20260831155023 | 85 | 300 | 0.9 | 3.5 | 0.00 | 0.26 | 0.00 | 77 | 1020.3 |
| 20260831154002 | 84 | 128 | 0.9 | 3.5 | 0.00 | 0.26 | 0.00 | 78 | 1020.3 |
| 20260831153002 | 84 | 164 | 0.9 | 3.5 | 0.00 | 0.26 | 0.00 | 81 | 1020.3 |
| 20260831152044 | 83 | 321 | 0.9 | 4.3 | 0.00 | 0.26 | 0.00 | 81 | 1020.2 |
| 20260831151002 | 83 | 293 | 0.9 | 3.5 | 0.00 | 0.26 | 0.00 | 81 | 1020.3 |
| 20260831150002 | 82 | 293 | 0.9 | 3.5 | 0.00 | 0.26 | 0.00 | 81 | 1020.4 |
| 20260831145002 | 82 | 326 | 0.0 | 1.7 | 0.00 | 0.26 | 0.00 | 83 | 1020.5 |
| 20260831144044 | 81 | 183 | 0.9 | 3.5 | 0.00 | 0.26 | 0.00 | 83 | 1020.5 |
| 20260831143002 | 80 | 332 | 1.7 | 4.3 | 0.00 | 0.26 | 0.00 | 83 | 1020.4 |
| 20260831142023 | 80 | 303 | 0.9 | 3.5 | 0.00 | 0.26 | 0.00 | 84 | 1020.2 |
| 20260831141045 | 79 | 319 | 0.9 | 4.3 | 0.00 | 0.26 | 0.00 | 89 | 1020.2 |
| 20260831140003 | 78 | 330 | 0.9 | 3.5 | 0.00 | 0.26 | 0.00 | 91 | 1020.2 |
| 20260831135045 | 77 | 337 | 0.9 | 3.5 | 0.00 | 0.26 | 0.00 | 94 | 1020.3 |
| 20260831134045 | 76 | 341 | 0.9 | 3.5 | 0.00 | 0.26 | 0.00 | 96 | 1020.3 |
| 20260831133044 | 75 | 350 | 0.9 | 3.5 | 0.00 | 0.26 | 0.00 | 97 | 1020.3 |
| 20260831132003 | 74 | 357 | 0.9 | 4.3 | 0.00 | 0.26 | 0.00 | 98 | 1020.3 |
| 20260831131044 | 74 | 333 | 0.9 | 3.5 | 0.00 | 0.26 | 0.00 | 98 | 1020.2 |
| 20260831130002 | 74 | 331 | 0.9 | 4.3 | 0.00 | 0.26 | 0.00 | 98 | 1020.2 |
| 20260831125024 | 73 | 340 | 0.9 | 7.0 | 0.00 | 0.26 | 0.00 | 98 | 1020.3 |
| 20260831124002 | 72 | 334 | 0.9 | 2.6 | 0.00 | 0.26 | 0.00 | 98 | 1020.2 |
| 20260831123002 | 72 | 322 | 0.9 | 1.7 | 0.00 | 0.26 | 0.00 | 98 | 1020.3 |
| 20260831122002 | 72 | 321 | 0.0 | 1.7 | 0.00 | 0.26 | 0.00 | 98 | 1020.1 |
| 20260831121044 | 71 | 320 | 0.0 | 1.7 | 0.00 | 0.26 | 0.00 | 98 | 1019.9 |
| 20260831120106 | 71 | 28 | 0.0 | 3.5 | 0.00 | 0.26 | 0.00 | 98 | 1019.9 |
| 20260831115002 | 70 | 138 | 0.0 | 0.9 | 0.00 | 0.26 | 0.00 | 97 | 1019.8 |
| 20260831114045 | 70 | 0 | 0.0 | 0.0 | 0.00 | 0.26 | 0.00 | 97 | 1019.8 |
| 20260831113045 | 69 | 0 | 0.0 | 0.0 | 0.00 | 0.26 | 0.00 | 97 | 1019.8 |
| 20260831112003 | 69 | 138 | 0.0 | 0.9 | 0.00 | 0.26 | 0.00 | 97 | 1019.6 |
| 20260831111003 | 69 | 0 | 0.0 | 0.0 | 0.00 | 0.26 | 0.00 | 97 | 1019.6 |
| 20260831110003 | 69 | 0 | 0.0 | 0.0 | 0.00 | 0.26 | 0.00 | 97 | 1019.4 |
| 20260831105003 | 69 | 0 | 0.0 | 0.0 | 0.00 | 0.26 | 0.00 | 97 | 1019.3 |
| 20260831104024 | 69 | 0 | 0.0 | 0.0 | 0.00 | 0.26 | 0.00 | 96 | 1019.2 |
| 20260831103024 | 69 | 0 | 0.0 | 0.0 | 0.00 | 0.26 | 0.00 | 96 | 1019.1 |
| 20260831102003 | 69 | 0 | 0.0 | 0.0 | 0.00 | 0.26 | 0.00 | 97 | 1019.0 |
| 20260831101001 | 69 | 138 | 0.0 | 0.9 | 0.00 | 0.26 | 0.00 | 97 | 1019.1 |
| 20260831100000 | 69 | 0 | 0.0 | 0.0 | 0.00 | 0.26 | 0.00 | 97 | 1019.2 |
| 20260831095000 | 69 | 0 | 0.0 | 0.0 | 0.00 | 0.26 | 0.00 | 97 | 1019.0 |
| 20260831094001 | 69 | 0 | 0.0 | 0.0 | 0.00 | 0.26 | 0.00 | 96 | 1019.1 |
| 20260831093001 | 69 | 0 | 0.0 | 0.0 | 0.00 | 0.26 | 0.00 | 96 | 1019.1 |
| 20260831092001 | 69 | 0 | 0.0 | 0.0 | 0.00 | 0.26 | 0.00 | 96 | 1019.0 |
| 20260831091001 | 69 | 0 | 0.0 | 0.0 | 0.00 | 0.26 | 0.00 | 96 | 1019.0 |
| 20260831090022 | 69 | 0 | 0.0 | 0.0 | 0.00 | 0.26 | 0.00 | 96 | 1019.0 |
| 20260831085022 | 70 | 0 | 0.0 | 0.0 | 0.00 | 0.26 | 0.00 | 96 | 1019.0 |
| 20260831084022 | 69 | 0 | 0.0 | 0.0 | 0.00 | 0.26 | 0.00 | 96 | 1019.1 |
| 20260831083001 | 69 | 0 | 0.0 | 0.0 | 0.00 | 0.26 | 0.00 | 96 | 1018.9 |
| 20260831082022 | 69 | 0 | 0.0 | 0.0 | 0.00 | 0.26 | 0.00 | 96 | 1018.9 |
| 20260831081022 | 70 | 0 | 0.0 | 0.0 | 0.00 | 0.26 | 0.00 | 96 | 1018.7 |
| 20260831080001 | 70 | 0 | 0.0 | 0.0 | 0.00 | 0.26 | 0.00 | 96 | 1018.6 |
| 20260831075022 | 70 | 0 | 0.0 | 0.0 | 0.00 | 0.26 | 0.00 | 96 | 1018.6 |
| 20260831074001 | 70 | 0 | 0.0 | 0.0 | 0.00 | 0.26 | 0.00 | 96 | 1018.7 |
| 20260831073001 | 70 | 0 | 0.0 | 0.0 | 0.00 | 0.26 | 0.00 | 96 | 1018.7 |
| 20260831072022 | 70 | 0 | 0.0 | 0.0 | 0.00 | 0.26 | 0.00 | 96 | 1018.7 |
| 20260831071001 | 70 | 138 | 0.0 | 1.7 | 0.00 | 0.26 | 0.00 | 96 | 1018.8 |
| 20260831070001 | 70 | 138 | 0.0 | 0.9 | 0.00 | 0.26 | 0.00 | 96 | 1018.7 |
| 20260831065022 | 70 | 0 | 0.0 | 0.0 | 0.00 | 0.26 | 0.00 | 96 | 1018.9 |
| 20260831064022 | 70 | 0 | 0.0 | 0.0 | 0.00 | 0.26 | 0.00 | 96 | 1018.9 |
| 20260831063001 | 70 | 0 | 0.0 | 0.0 | 0.00 | 0.26 | 0.00 | 96 | 1018.9 |
| 20260831062104 | 70 | 0 | 0.0 | 0.0 | 0.00 | 0.26 | 0.00 | 96 | 1019.0 |
| 20260831061001 | 70 | 0 | 0.0 | 0.0 | 0.00 | 0.26 | 0.00 | 96 | 1019.0 |
| 20260831060001 | 70 | 0 | 0.0 | 0.0 | 0.00 | 0.26 | 0.00 | 96 | 1019.0 |
| 20260831055001 | 70 | 0 | 0.0 | 0.0 | 0.00 | 0.26 | 0.00 | 96 | 1019.2 |
| 20260831054001 | 71 | 0 | 0.0 | 0.0 | 0.00 | 0.26 | 0.00 | 96 | 1019.2 |
| 20260831053001 | 71 | 0 | 0.0 | 0.0 | 0.00 | 0.26 | 0.00 | 96 | 1019.2 |
| 20260831052001 | 71 | 138 | 0.0 | 0.9 | 0.00 | 0.26 | 0.00 | 96 | 1019.3 |
| 20260831051043 | 71 | 138 | 0.0 | 0.9 | 0.00 | 0.26 | 0.00 | 96 | 1019.3 |
| 20260831050001 | 71 | 0 | 0.0 | 0.0 | 0.00 | 0.26 | 0.00 | 96 | 1019.4 |
| 20260831045001 | 71 | 0 | 0.0 | 0.0 | 0.00 | 0.26 | 0.00 | 96 | 1019.4 |
| 20260831044001 | 71 | 0 | 0.0 | 0.0 | 0.00 | 0.26 | 0.00 | 96 | 1019.5 |
| 20260831043022 | 71 | 0 | 0.0 | 0.0 | 0.00 | 0.26 | 0.00 | 96 | 1019.4 |